Weather History for VTUK - October, 2012

Change the Weather History Date:

Tuesday, October 30, 2012

  Actual Average Record
Temperature  
Mean Temperature 85 °F -  
Max Temperature 95 °F 87 °F - ()
Min Temperature 75 °F 67 °F - ()
Cooling Degree Days 20    
Growing Degree Days 35 (Base 50)    
Moisture  
Dew Point 75 °F    
Average Humidity 74    
Maximum Humidity 100    
Minimum Humidity 44    
Precipitation  
Precipitation 0.00 in 0.02 in - ()
Sea Level Pressure  
Sea Level Pressure 29.79 in    
Wind  
Wind Speed 2 mph ()    
Max Wind Speed 14 mph    
Max Gust Speed -    
Visibility 5.7 miles    
Events      
T = Trace of Precipitation, MM = Missing Value Source: Averaged Metar Reports

Daily Weather History Graph

Daily Weather History Graph

Search for Another Location

Airport or City:

Trip Planner

Search our weather history database for the weather conditions in past years. The results will help you decide how hot, cold, wet, or windy it might be!

Date:

Astronomy

Oct. 30, 2012 Rise Set
Actual Time 6:05 AM ICT 5:39 PM ICT
Civil Twilight 5:43 AM ICT 6:01 PM ICT
Nautical Twilight 5:17 AM ICT 6:26 PM ICT
Astronomical Twilight 4:52 AM ICT 6:52 PM ICT
Moon 5:57 PM ICT (10/30) 6:15 AM ICT (10/30)
Length of Visible Light 12h 17m
Length of Day
11h 33m
Full, 100% of the Moon is Illuminated
Oct 30
Full
Nov 7
Last Quarter
Nov 14
New
Nov 20
First Quarter
Nov 28
Full

Hourly Weather History & Observations

Time (ICT) Temp. Heat Index Dew Point Humidity Pressure Visibility Wind Dir Wind Speed Gust Speed Precip Events Conditions
1:00 AM 79 °F - 74 °F 81% 29.80 in 6 mi North 2.3 mph - -   Clear
4:00 AM 77.0 °F - 75.2 °F 94% 29.77 in - Calm Calm - N/A   Clear
6:00 AM 75.2 °F - 75.2 °F 100% 29.83 in 5.0 mi Calm Calm - N/A   Mostly Cloudy
7:00 AM 77 °F - 74 °F 88% 29.82 in 4 mi Calm Calm - -   Mist
7:00 AM 78.8 °F - 77.0 °F 94% 29.83 in 3.7 mi Calm Calm - N/A   Mostly Cloudy
8:00 AM 84.2 °F 94.1 °F 77.0 °F 79% 29.86 in 5.0 mi Calm Calm - N/A   Partly Cloudy
9:00 AM 86.0 °F 96.9 °F 77.0 °F 74% 29.86 in - Variable 3.5 mph - N/A   Clear
10:00 AM 87.8 °F 99.7 °F 77.0 °F 70% 29.86 in - NE 4.6 mph - N/A   Clear
11:00 AM 91.4 °F 105.1 °F 77.0 °F 63% 29.86 in 6.2 mi Variable 2.3 mph - N/A   Scattered Clouds
12:00 PM 91.4 °F 102.5 °F 75.2 °F 59% 29.80 in 6.2 mi Variable 2.3 mph - N/A   Scattered Clouds
1:00 PM 92 °F - 73 °F 44% 29.80 in 6 mi South 3.5 mph - -   Partly Cloudy
1:00 PM 93.2 °F 105.0 °F 75.2 °F 56% 29.77 in 6.2 mi Variable 2.3 mph - N/A   Scattered Clouds
2:00 PM 93.2 °F 105.0 °F 75.2 °F 56% 29.74 in 6.2 mi Calm Calm - N/A   Scattered Clouds
3:00 PM 93.2 °F 105.0 °F 75.2 °F 56% 29.71 in 6.2 mi ENE 8.1 mph - N/A   Mostly Cloudy
4:00 PM 86.0 °F 93.4 °F 73.4 °F 66% 29.71 in 6.2 mi ENE 8.1 mph - N/A   Scattered Clouds
5:00 PM 84.2 °F 92.3 °F 75.2 °F 74% 29.74 in 6.2 mi NNE 13.8 mph - N/A   Scattered Clouds
6:00 PM 82.4 °F 89.5 °F 75.2 °F 79% 29.74 in 6.2 mi NNE 3.5 mph - N/A   Mostly Cloudy
7:00 PM 81 °F - 73 °F 71% 29.76 in 6 mi ENE 3.5 mph - -   Scattered Clouds
7:00 PM 78.8 °F - 75.2 °F 89% 29.80 in 6.2 mi Calm Calm - N/A   Mostly Cloudy
8:00 PM 78.8 °F - 75.2 °F 89% 29.83 in 6.2 mi Variable 2.3 mph - N/A   Scattered Clouds